| time (UTC) | temp C | wind direction | speed KPH | gust KPH | rain 1hr cm | rain 24hr cm | rain mn cm | humidity % | barometer mb |
| 20260505041604 | 15 | 1 | 0.0 | 0.0 | 0.00 | 0.00 | 0.00 | 63 | 1000.2 |
| 20260505040604 | 15 | 10 | 0.0 | 0.0 | 0.00 | 0.00 | 0.00 | 62 | 1000.3 |
| 20260505040104 | 16 | 2 | 0.0 | 0.0 | 0.00 | 0.00 | 0.00 | 61 | 1000.2 |
| 20260505035604 | 16 | 0 | 0.0 | 0.0 | 0.00 | 0.00 | 0.00 | 60 | 1000.3 |
| 20260505034104 | 16 | 10 | 0.0 | 0.0 | 0.00 | 0.00 | 0.00 | 59 | 1000.3 |
| 20260505033603 | 16 | 9 | 0.0 | 0.0 | 0.00 | 0.00 | 0.00 | 58 | 1000.2 |
| 20260505033104 | 16 | 11 | 0.0 | 0.0 | 0.00 | 0.00 | 0.00 | 58 | 1000.4 |
| 20260505031103 | 16 | 0 | 0.0 | 0.0 | 0.00 | 0.00 | 0.00 | 56 | 1000.6 |
| 20260505030604 | 16 | 1 | 0.0 | 0.0 | 0.00 | 0.00 | 0.00 | 55 | 1000.6 |
| 20260505030104 | 16 | 1 | 0.0 | 0.0 | 0.00 | 0.00 | 0.00 | 55 | 1000.6 |
| 20260505025603 | 16 | 1 | 0.0 | 0.0 | 0.00 | 0.00 | 0.00 | 55 | 1000.7 |
| 20260505025104 | 16 | 10 | 0.0 | 0.0 | 0.00 | 0.00 | 0.00 | 55 | 1000.7 |
| 20260505024603 | 16 | 11 | 0.0 | 0.0 | 0.00 | 0.00 | 0.00 | 54 | 1000.7 |
| 20260505024104 | 16 | 10 | 0.0 | 0.0 | 0.00 | 0.00 | 0.00 | 54 | 1000.8 |
| 20260505023103 | 16 | 0 | 0.0 | 0.0 | 0.00 | 0.00 | 0.00 | 53 | 1000.8 |
| 20260505022604 | 16 | 9 | 0.0 | 0.0 | 0.00 | 0.00 | 0.00 | 53 | 1000.9 |
| 20260505022103 | 17 | 10 | 0.0 | 0.0 | 0.00 | 0.00 | 0.00 | 52 | 1001.0 |
| 20260505021103 | 17 | 0 | 0.0 | 0.0 | 0.00 | 0.00 | 0.00 | 52 | 1001.1 |
| 20260505020604 | 17 | 12 | 0.0 | 0.0 | 0.00 | 0.00 | 0.00 | 51 | 1001.1 |
| 20260505020104 | 17 | 10 | 0.0 | 0.0 | 0.00 | 0.00 | 0.00 | 50 | 1001.2 |
| 20260505015603 | 17 | 10 | 0.0 | 0.0 | 0.00 | 0.00 | 0.00 | 49 | 1001.2 |
| 20260505015103 | 17 | 9 | 0.0 | 0.0 | 0.00 | 0.00 | 0.00 | 49 | 1001.2 |
| 20260505014603 | 17 | 9 | 0.0 | 0.0 | 0.00 | 0.00 | 0.00 | 49 | 1001.1 |
| 20260505014103 | 17 | 12 | 0.0 | 0.0 | 0.00 | 0.00 | 0.00 | 49 | 1001.1 |
| 20260505013604 | 17 | 9 | 0.0 | 0.0 | 0.00 | 0.00 | 0.00 | 48 | 1001.2 |
| 20260505013103 | 17 | 8 | 0.0 | 0.0 | 0.00 | 0.00 | 0.00 | 47 | 1001.2 |
| 20260505012604 | 17 | 0 | 0.0 | 0.0 | 0.00 | 0.00 | 0.00 | 47 | 1001.2 |
| 20260505011603 | 17 | 11 | 0.0 | 0.0 | 0.00 | 0.00 | 0.00 | 46 | 1001.3 |
| 20260505011104 | 17 | 7 | 0.0 | 0.0 | 0.00 | 0.00 | 0.00 | 46 | 1001.3 |
| 20260505010603 | 17 | 12 | 0.0 | 0.0 | 0.00 | 0.03 | 0.00 | 46 | 1001.2 |
| 20260505010104 | 17 | 9 | 0.0 | 0.0 | 0.00 | 0.03 | 0.00 | 46 | 1001.1 |
| 20260505005604 | 17 | 9 | 0.0 | 0.0 | 0.00 | 0.03 | 0.00 | 46 | 1001.2 |
| 20260505005103 | 18 | 1 | 0.0 | 0.0 | 0.00 | 0.05 | 0.00 | 45 | 1001.2 |
| 20260505004104 | 18 | 11 | 0.0 | 0.0 | 0.00 | 0.05 | 0.00 | 45 | 1001.3 |
| 20260505003104 | 18 | 1 | 0.0 | 0.0 | 0.00 | 0.08 | 0.00 | 46 | 1001.3 |
| 20260505002603 | 18 | 0 | 0.0 | 0.0 | 0.00 | 0.08 | 0.00 | 46 | 1001.1 |
| 20260505002104 | 18 | 10 | 0.0 | 0.0 | 0.00 | 0.08 | 0.00 | 46 | 1001.1 |
| 20260505001603 | 18 | 8 | 0.0 | 0.0 | 0.00 | 0.10 | 0.00 | 47 | 1001.2 |
| 20260505001103 | 18 | 0 | 0.0 | 0.0 | 0.00 | 0.10 | 0.00 | 46 | 1001.2 |
| 20260505000604 | 18 | 0 | 0.0 | 0.0 | 0.00 | 0.13 | 0.00 | 47 | 1001.2 |
| 20260505000105 | 18 | 0 | 0.0 | 0.0 | 0.00 | 0.13 | 0.00 | 47 | 1001.3 |
| 20260504235603 | 18 | 0 | 0.0 | 0.0 | 0.00 | 0.15 | 0.00 | 46 | 1001.3 |
| 20260504235103 | 18 | 10 | 0.0 | 0.0 | 0.00 | 0.15 | 0.00 | 46 | 1001.3 |
| 20260504234604 | 18 | 8 | 0.0 | 0.0 | 0.00 | 0.15 | 0.00 | 46 | 1001.3 |
| 20260504234104 | 18 | 9 | 0.0 | 0.0 | 0.00 | 0.15 | 0.00 | 46 | 1001.4 |
| 20260504233603 | 18 | 10 | 0.0 | 0.0 | 0.00 | 0.15 | 0.00 | 46 | 1001.4 |
| 20260504233104 | 18 | 9 | 0.0 | 0.0 | 0.00 | 0.15 | 0.00 | 46 | 1001.4 |
| 20260504232604 | 18 | 0 | 0.0 | 0.0 | 0.00 | 0.15 | 0.00 | 47 | 1001.5 |
| 20260504232104 | 19 | 11 | 0.0 | 0.0 | 0.00 | 0.15 | 0.00 | 46 | 1001.6 |
| 20260504231603 | 19 | 1 | 0.0 | 0.0 | 0.00 | 0.15 | 0.00 | 46 | 1001.5 |
| 20260504231104 | 19 | 89 | 0.0 | 0.0 | 0.00 | 0.15 | 0.00 | 45 | 1001.5 |
| 20260504230604 | 19 | 9 | 0.0 | 0.0 | 0.00 | 0.15 | 0.00 | 44 | 1001.6 |
| 20260504230104 | 20 | 2 | 0.0 | 0.0 | 0.00 | 0.15 | 0.00 | 44 | 1001.6 |
| 20260504225604 | 20 | 1 | 0.0 | 0.0 | 0.00 | 0.15 | 0.00 | 43 | 1001.6 |
| 20260504224603 | 20 | 2 | 0.0 | 0.0 | 0.00 | 0.15 | 0.00 | 43 | 1001.6 |
| 20260504224104 | 20 | 1 | 0.0 | 0.0 | 0.00 | 0.15 | 0.00 | 43 | 1001.6 |
| 20260504223604 | 20 | 0 | 0.0 | 0.0 | 0.00 | 0.15 | 0.00 | 43 | 1001.5 |
| 20260504223104 | 20 | 0 | 0.0 | 0.0 | 0.00 | 0.15 | 0.00 | 44 | 1001.6 |
| 20260504222604 | 21 | 12 | 0.0 | 0.0 | 0.00 | 0.15 | 0.00 | 44 | 1001.4 |
| 20260504222104 | 21 | 10 | 0.0 | 0.0 | 0.00 | 0.15 | 0.00 | 43 | 1001.4 |
| 20260504221604 | 21 | 9 | 0.0 | 0.0 | 0.00 | 0.18 | 0.00 | 42 | 1001.4 |
| 20260504221104 | 21 | 9 | 0.0 | 0.0 | 0.00 | 0.20 | 0.00 | 42 | 1001.3 |
| 20260504220104 | 21 | 10 | 0.0 | 0.0 | 0.00 | 0.20 | 0.00 | 35 | 1001.2 |
| 20260504215604 | 21 | 11 | 0.0 | 0.0 | 0.00 | 0.20 | 0.00 | 35 | 1001.1 |
| 20260504214103 | 21 | 0 | 0.0 | 0.0 | 0.00 | 0.20 | 0.00 | 35 | 1001.2 |
| 20260504213603 | 21 | 0 | 0.0 | 0.0 | 0.00 | 0.20 | 0.00 | 35 | 1001.1 |
| 20260504213103 | 21 | 0 | 0.0 | 0.0 | 0.00 | 0.20 | 0.00 | 38 | 1001.1 |
| 20260504212604 | 21 | 12 | 0.0 | 0.0 | 0.00 | 0.20 | 0.00 | 38 | 1001.1 |
| 20260504212104 | 21 | 8 | 0.0 | 0.0 | 0.00 | 0.20 | 0.00 | 36 | 1001.2 |
| 20260504211604 | 22 | 11 | 0.0 | 0.0 | 0.00 | 0.20 | 0.00 | 36 | 1001.2 |
| 20260504211103 | 22 | 7 | 0.0 | 0.0 | 0.00 | 0.20 | 0.00 | 37 | 1001.1 |
| 20260504210604 | 22 | 0 | 0.0 | 0.0 | 0.00 | 0.20 | 0.00 | 37 | 1001.1 |
| 20260504210104 | 22 | 0 | 0.0 | 0.0 | 0.00 | 0.23 | 0.00 | 35 | 1001.1 |
| 20260504205104 | 22 | 0 | 0.0 | 0.0 | 0.00 | 0.23 | 0.00 | 37 | 1001.2 |
| 20260504203603 | 22 | 8 | 0.0 | 0.0 | 0.00 | 0.23 | 0.00 | 35 | 1001.2 |
| 20260504203104 | 22 | 2 | 0.0 | 0.0 | 0.00 | 0.23 | 0.00 | 34 | 1001.3 |
| 20260504202103 | 23 | 1 | 0.0 | 0.0 | 0.00 | 0.23 | 0.00 | 35 | 1001.4 |
| 20260504201604 | 23 | 1 | 0.0 | 0.0 | 0.00 | 0.23 | 0.00 | 35 | 1001.5 |
| 20260504201104 | 23 | 2 | 0.0 | 0.0 | 0.00 | 0.23 | 0.00 | 35 | 1001.5 |
| 20260504200603 | 22 | 1 | 0.0 | 0.0 | 0.00 | 0.23 | 0.00 | 37 | 1001.5 |
| 20260504195603 | 22 | 2 | 0.0 | 0.0 | 0.00 | 0.23 | 0.00 | 38 | 1001.6 |
| 20260504195104 | 21 | 1 | 0.0 | 0.0 | 0.00 | 0.23 | 0.00 | 38 | 1001.7 |
| 20260504194604 | 21 | 1 | 0.0 | 0.0 | 0.00 | 0.23 | 0.00 | 39 | 1001.6 |
| 20260504194104 | 21 | 0 | 0.0 | 0.0 | 0.00 | 0.23 | 0.00 | 40 | 1001.8 |
| 20260504193604 | 22 | 0 | 0.0 | 0.0 | 0.00 | 0.23 | 0.00 | 38 | 1001.9 |
| 20260504192104 | 22 | 12 | 0.0 | 0.0 | 0.00 | 0.23 | 0.00 | 39 | 1002.1 |
| 20260504191604 | 22 | 2 | 0.0 | 0.0 | 0.00 | 0.23 | 0.00 | 40 | 1002.1 |
| 20260504191104 | 22 | 1 | 0.0 | 0.0 | 0.00 | 0.23 | 0.00 | 40 | 1002.3 |
| 20260504190604 | 22 | 1 | 0.0 | 0.0 | 0.00 | 0.23 | 0.00 | 39 | 1002.3 |
| 20260504190104 | 22 | 2 | 0.0 | 0.0 | 0.00 | 0.23 | 0.00 | 40 | 1002.3 |
| 20260504185604 | 21 | 1 | 0.0 | 0.0 | 0.00 | 0.23 | 0.00 | 42 | 1002.3 |
| 20260504185103 | 22 | 2 | 0.0 | 0.0 | 0.00 | 0.23 | 0.00 | 41 | 1002.4 |
| 20260504184603 | 22 | 2 | 0.0 | 0.0 | 0.00 | 0.23 | 0.00 | 41 | 1002.4 |
| 20260504184104 | 21 | 1 | 0.0 | 0.0 | 0.00 | 0.23 | 0.00 | 41 | 1002.5 |
| 20260504183604 | 21 | 0 | 0.0 | 0.0 | 0.00 | 0.23 | 0.00 | 42 | 1002.5 |
| 20260504183104 | 21 | 0 | 0.0 | 0.0 | 0.00 | 0.23 | 0.00 | 41 | 1002.6 |
| 20260504182605 | 21 | 0 | 0.0 | 0.0 | 0.00 | 0.23 | 0.00 | 42 | 1002.7 |
| 20260504182104 | 21 | 8 | 0.0 | 0.0 | 0.00 | 0.23 | 0.00 | 42 | 1002.7 |
| 20260504180604 | 21 | 11 | 0.0 | 0.0 | 0.00 | 0.23 | 0.00 | 42 | 1002.8 |
| 20260504180105 | 22 | 10 | 0.0 | 0.0 | 0.00 | 0.23 | 0.00 | 42 | 1002.9 |
| 20260504175603 | 22 | 9 | 0.0 | 0.0 | 0.00 | 0.23 | 0.00 | 43 | 1003.0 |
| 20260504175103 | 22 | 9 | 0.0 | 0.0 | 0.00 | 0.23 | 0.00 | 41 | 1003.0 |
| 20260504174603 | 22 | 9 | 0.0 | 0.0 | 0.00 | 0.23 | 0.00 | 44 | 1003.1 |
| 20260504174103 | 21 | 0 | 0.0 | 0.0 | 0.00 | 0.23 | 0.00 | 42 | 1003.1 |
| 20260504173103 | 21 | 0 | 0.0 | 0.0 | 0.00 | 0.23 | 0.00 | 43 | 1003.1 |
| 20260504172604 | 21 | 2 | 0.0 | 0.0 | 0.00 | 0.23 | 0.00 | 45 | 1003.3 |
| 20260504171604 | 21 | 1 | 0.0 | 0.0 | 0.00 | 0.23 | 0.00 | 46 | 1003.4 |
| 20260504171104 | 21 | 1 | 0.0 | 0.0 | 0.00 | 0.23 | 0.00 | 47 | 1003.5 |
| 20260504170603 | 21 | 1 | 0.0 | 0.0 | 0.00 | 0.23 | 0.00 | 47 | 1003.6 |
| 20260504170104 | 21 | 2 | 0.0 | 0.0 | 0.00 | 0.23 | 0.00 | 47 | 1003.8 |
| 20260504160104 | 20 | 10 | 0.0 | 0.0 | 0.00 | 0.23 | 0.00 | 50 | 1004.5 |
| 20260504151103 | 18 | 1 | 0.0 | 0.0 | 0.00 | 0.23 | 0.00 | 52 | 1005.0 |
| 20260504150603 | 18 | 1 | 0.0 | 0.0 | 0.00 | 0.23 | 0.00 | 52 | 1005.0 |
| 20260504150104 | 18 | 2 | 0.0 | 0.0 | 0.00 | 0.23 | 0.00 | 54 | 1005.0 |
| 20260504140604 | 16 | 0 | 0.0 | 0.0 | 0.00 | 0.23 | 0.00 | 57 | 1005.2 |
| 20260504140105 | 15 | 89 | 0.0 | 0.0 | 0.00 | 0.23 | 0.00 | 57 | 1005.2 |
| 20260504130604 | 13 | 0 | 0.0 | 0.0 | 0.00 | 0.23 | 0.00 | 60 | 1005.7 |
| 20260504130105 | 13 | 0 | 0.0 | 0.0 | 0.00 | 0.23 | 0.00 | 60 | 1005.7 |
| 20260504120104 | 10 | 11 | 0.0 | 0.0 | 0.00 | 0.23 | 0.00 | 69 | 1005.8 |
| 20260504110603 | 8 | 11 | 0.0 | 0.0 | 0.00 | 0.23 | 0.00 | 78 | 1005.7 |
| 20260504110104 | 7 | 10 | 0.0 | 0.0 | 0.00 | 0.23 | 0.00 | 79 | 1005.8 |
| 20260504100603 | 7 | 10 | 0.0 | 0.0 | 0.00 | 0.23 | 0.00 | 78 | 1005.7 |
| 20260504100104 | 7 | 10 | 0.0 | 0.0 | 0.00 | 0.23 | 0.00 | 78 | 1005.7 |
| 20260504090104 | 8 | 1 | 0.0 | 0.0 | 0.00 | 0.23 | 0.00 | 77 | 1006.1 |
| 20260504081605 | 8 | 11 | 0.0 | 0.0 | 0.00 | 0.23 | 0.00 | 77 | 1006.6 |
| 20260504081103 | 8 | 11 | 0.0 | 0.0 | 0.00 | 0.23 | 0.00 | 77 | 1006.6 |
| 20260504080104 | 8 | 1 | 0.0 | 0.0 | 0.00 | 0.23 | 0.00 | 78 | 1006.4 |
| 20260504070105 | 9 | 2 | 0.0 | 0.0 | 0.00 | 0.23 | 0.00 | 77 | 1006.4 |
| 20260504060104 | 8 | 8 | 0.0 | 0.0 | 0.00 | 0.23 | 0.00 | 79 | 1007.0 |
| 20260504050604 | 7 | 0 | 0.0 | 0.0 | 0.00 | 0.23 | 0.00 | 85 | 1007.3 |
| 20260504050104 | 7 | 0 | 0.0 | 0.0 | 0.00 | 0.23 | 0.00 | 86 | 1007.3 |
| 20260504045603 | 7 | 0 | 0.0 | 0.0 | 0.00 | 0.23 | 0.00 | 86 | 1007.3 |